Location: Riverside
(39.1734°N, 77.8561°W)
Time: 08:14:41
(UTC+00:00)

Hubble Space Telescope - Pass Details

Date: 21 November 2019
Orbit: 536 x 540 km, 28.5° (Epoch: 15 December)

Event Time Altitude Azimuth Distance (km) Brightness Sun altitude
Rises 22:25:05 0° 221° (SW) 2,664 5.6 -6.5°
Reaches altitude 10° 22:28:27 10° 192° (SSW) 1,776 3.9 -7.2°
Maximum altitude 22:30:18 13° 166° (SSE) 1,610 3.3 -7.5°
Drops below altitude 10° 22:32:08 10° 139° (SE) 1,779 3.2 -7.8°
Enters shadow 22:34:44 - 115° (ESE) 2,430 3.7 -8.3°
